Location: Jackson Park
(37.2862°N, 79.9123°W)
Time: 10:44:06
(UTC+00:00)

Vanguard 3 - Visible Passes

Search period start: 15 May 2026 00:00
Search period end: 25 May 2026 00:00
Orbit: 507 x 3205 km, 33.4° (Epoch: 14 May)

Date Brightness Start Highest point End Pass type
(mag) Time Alt. Az. Time Alt. Az. Time Alt. Az.
15 May 9.8 00:33:44 10° W 00:48:50 46° SSW 00:58:07 10° SE visible
15 May 10.2 02:54:58 10° WSW 02:58:55 12° SW 03:02:17 10° SSW visible
16 May 10.0 01:25:47 10° W 01:37:39 29° SW 01:45:36 10° SSE visible
17 May 10.3 02:19:52 10° W 02:25:56 14° SW 02:30:52 10° SSW visible
18 May 10.2 00:51:03 10° W 01:04:24 31° SW 01:13:27 10° SSE visible
19 May 10.4 01:44:54 10° W 01:52:48 16° SW 01:59:03 10° SSW visible
21 May 10.6 01:09:58 10° W 01:19:29 18° SW 01:26:58 10° SSW visible
